NORTHERN NASSAU  -  Coastal Flood Statement Coastal Flood Statement     Rip Current Statement Rip Current Statement        NORTHERN QUEENS  -  Coastal Flood Statement Coastal Flood Statement     Rip Current Statement Rip Current Statement        SOUTHERN NASSAU  -  Coastal Flood Statement Coastal Flood Statement     Rip Current Statement Rip Current Statement        SOUTHERN QUEENS  -  Coastal Flood Statement Coastal Flood Statement     Rip Current Statement Rip Current Statement        NORTHEAST SUFFOLK  -  Rip Current Statement Rip Current Statement        NORTHWEST SUFFOLK  -  Rip Current Statement Rip Current Statement        SOUTHEAST SUFFOLK  -  Rip Current Statement Rip Current Statement        SOUTHWEST SUFFOLK  -  Rip Current Statement Rip Current Statement      

Active alerts

Northern Queens
  Details for Northern Queens Coastal Flood Statement  +1 additional alert
Southern Queens
  Details for Southern Queens Coastal Flood Statement  +1 additional alert
Northern Nassau
  Details for Northern Nassau Coastal Flood Statement  +1 additional alert
Southern Nassau
  Details for Southern Nassau Coastal Flood Statement  +1 additional alert
Northwest Suffolk
  Details for Northwest Suffolk Rip Current Statement
Southwest Suffolk
  Details for Southwest Suffolk Rip Current Statement
Northeast Suffolk
  Details for Northeast Suffolk Rip Current Statement
Southeast Suffolk
  Details for Southeast Suffolk Rip Current Statement


WXM80 ListenWXM80 Stop

You find our weather info also at:

UK Metoffice

WeatherCloud

Weather Underground

Northeastern Weather Network

AWEKAS

Citizen Weather Observer Program (CWOP)

HAMweather, WeatherForYou, PWS Weather


Weather Underground History page Text

Daily Summary for January 7, 2018 Units:  Metric    English   Both
« Previous Day
Next Day »
Daily Weekly Monthly Yearly Custom
  High: Low: Average:
Temperature: -7.7 °C -14.4 °C -11.2 °C
Dew Point: -13.7 °C -19.4 °C -17.2 °C
Humidity: 68 % 50 % 61 %
Wind Speed: 17.2 km/h 0 km/h 6.3 km/h
Wind Gust: 32.2 km/h - -
Wind:- - West
Pressure: 1036.8 hPa 1028 hPa -
Precipitation: 0 mm    
Historical Graphs
 
 
Tabular Data for January 7, 2018
Time Temperature Dew Point Pressure Wind Wind Speed Wind Gust Humidity Rainfall Rate (Hourly)
00:00 -13.1 °C -18.5 °C 1029.7 hPa NW 13 km/h 16.7 km/h 64 % 0 mm
00:07 -13.2 °C -18.4 °C 1029.7 hPa NW 15.3 km/h 29.6 km/h 65 % 0 mm
00:12 -13.2 °C -18.6 °C 1029.7 hPa NNW 14.5 km/h 24.1 km/h 64 % 0 mm
00:17 -13.2 °C -18.4 °C 1029.7 hPa NW 14 km/h 27.8 km/h 65 % 0 mm
00:22 -13.2 °C -18.6 °C 1029.7 hPa NW 7.1 km/h 14.8 km/h 64 % 0 mm
00:27 -13.2 °C -18.4 °C 1029.7 hPa North 12.4 km/h 22.2 km/h 65 % 0 mm
00:38 -13.2 °C -18.6 °C 1029.7 hPa WNW 3.5 km/h 16.7 km/h 64 % 0 mm
00:43 -13.2 °C -18.6 °C 1030 hPa West 14.3 km/h 22.5 km/h 64 % 0 mm
00:44 -13.2 °C -18.6 °C 1030 hPa SW 15.3 km/h 25.9 km/h 64 % 0 mm
00:49 -13.2 °C -18.6 °C 1030 hPa North 10.5 km/h 25.9 km/h 64 % 0 mm
00:54 -13.2 °C -18.8 °C 1030 hPa NW 13.5 km/h 29.6 km/h 63 % 0 mm
00:56 -13.2 °C -18.6 °C 1030 hPa NW 13 km/h 22.2 km/h 64 % 0 mm
01:02 -13.2 °C -18.6 °C 1030 hPa NW 11.1 km/h 25.7 km/h 64 % 0 mm
01:04 -13.2 °C -18.6 °C 1030.4 hPa WNW 17.2 km/h 27.8 km/h 64 % 0 mm
01:09 -13.2 °C -18.6 °C 1030 hPa WNW 9 km/h 18.5 km/h 64 % 0 mm
01:14 -13.2 °C -18.6 °C 1030 hPa WNW 7.4 km/h 9.7 km/h 64 % 0 mm
01:17 -13.2 °C -18.6 °C 1030 hPa WNW 6.4 km/h 18.5 km/h 64 % 0 mm
01:20 -13.2 °C -18.6 °C 1030.4 hPa NNW 8.2 km/h 16.7 km/h 64 % 0 mm
01:25 -13.2 °C -18.8 °C 1030.4 hPa NW 12.2 km/h 22.2 km/h 63 % 0 mm
01:30 -13.2 °C -18.8 °C 1030.4 hPa NW 11.6 km/h 18.5 km/h 63 % 0 mm
01:35 -13.2 °C -18.6 °C 1030.4 hPa North 8.4 km/h 18.5 km/h 64 % 0 mm
01:40 -13.2 °C -18.6 °C 1030.7 hPa NW 6.9 km/h 22.2 km/h 64 % 0 mm
01:45 -13.2 °C -18.6 °C 1030.7 hPa NNW 13 km/h 25.9 km/h 64 % 0 mm
01:50 -13.2 °C -18.6 °C 1030.7 hPa NNW 14.3 km/h 19.3 km/h 64 % 0 mm
01:56 -13.2 °C -18.8 °C 1031 hPa West 9.2 km/h 18.5 km/h 63 % 0 mm
02:01 -13.3 °C -18.8 °C 1031.4 hPa WNW 10.1 km/h 20.4 km/h 63 % 0 mm
02:06 -13.3 °C -18.7 °C 1031.4 hPa NW 11.3 km/h 32.2 km/h 64 % 0 mm
02:11 -13.3 °C -18.7 °C 1031.4 hPa WNW 8.7 km/h 18.5 km/h 64 % 0 mm
02:17 -13.3 °C -18.7 °C 1031.4 hPa NW 8.7 km/h 9.7 km/h 64 % 0 mm
02:22 -13.3 °C -18.7 °C 1031.7 hPa NW 9.2 km/h 14.5 km/h 64 % 0 mm
02:27 -13.3 °C -18.9 °C 1031.7 hPa NW 7.6 km/h 14.8 km/h 63 % 0 mm
02:32 -13.4 °C -18.9 °C 1032.1 hPa North 12.7 km/h 22.5 km/h 63 % 0 mm
02:37 -13.4 °C -18.9 °C 1032.1 hPa WNW 7.1 km/h 18.5 km/h 63 % 0 mm
02:42 -13.3 °C -18.7 °C 1032.1 hPa NW 11.1 km/h 14.8 km/h 64 % 0 mm
02:44 -13.3 °C -18.7 °C 1032.1 hPa NNW 13.8 km/h 24.1 km/h 64 % 0 mm
02:49 -13.4 °C -18.8 °C 1032.1 hPa NNW 10.3 km/h 19.3 km/h 64 % 0 mm
02:58 -13.4 °C -18.8 °C 1032.1 hPa NW 10.6 km/h 18.5 km/h 64 % 0 mm
03:04 -13.4 °C -18.8 °C 1032.1 hPa NW 8.2 km/h 18.5 km/h 64 % 0 mm
03:09 -13.4 °C -18.8 °C 1032.1 hPa NNW 10.1 km/h 16.7 km/h 64 % 0 mm
03:14 -13.4 °C -18.8 °C 1032.1 hPa NNW 6.1 km/h 22.2 km/h 64 % 0 mm
03:19 -13.5 °C -18.7 °C 1032.1 hPa WNW 11.9 km/h 18.5 km/h 65 % 0 mm
03:22 -13.5 °C -18.7 °C 1032.1 hPa NW 8.2 km/h 18.5 km/h 65 % 0 mm
03:27 -13.5 °C -18.5 °C 1032.1 hPa NW 11.1 km/h 22.2 km/h 66 % 0 mm
03:33 -13.6 °C -18.7 °C 1032.4 hPa WNW 7.1 km/h 18.5 km/h 65 % 0 mm
03:35 -13.6 °C -18.7 °C 1032.4 hPa NNW 12.7 km/h 22.2 km/h 65 % 0 mm
03:41 -13.7 °C -19 °C 1032.4 hPa WNW 11.3 km/h 22.5 km/h 64 % 0 mm
03:46 -13.7 °C -19 °C 1032.4 hPa NW 8 km/h 16.1 km/h 64 % 0 mm
03:47 -13.7 °C -18.9 °C 1032.4 hPa NW 8.2 km/h 16.7 km/h 65 % 0 mm
03:52 -13.7 °C -18.9 °C 1032.7 hPa West 6.9 km/h 11.3 km/h 65 % 0 mm
03:57 -13.8 °C -19.1 °C 1032.7 hPa WNW 7.7 km/h 18.5 km/h 64 % 0 mm
04:02 -13.8 °C -19.2 °C 1032.7 hPa WNW 7.1 km/h 11.3 km/h 64 % 0 mm
04:08 -13.8 °C -19 °C 1032.7 hPa NNW 9.3 km/h 18.5 km/h 65 % 0 mm
04:13 -13.8 °C -19 °C 1032.7 hPa WNW 6.4 km/h 13 km/h 65 % 0 mm
04:14 -13.8 °C -19 °C 1032.7 hPa NW 8.4 km/h 19.3 km/h 65 % 0 mm
04:19 -13.8 °C -19.2 °C 1033.1 hPa NW 9.2 km/h 18.5 km/h 64 % 0 mm
04:25 -13.8 °C -19 °C 1033.1 hPa WNW 4.8 km/h 5.6 km/h 65 % 0 mm
04:30 -13.9 °C -19.1 °C 1033.1 hPa NNW 2.1 km/h 7.4 km/h 65 % 0 mm
04:35 -13.9 °C -19.1 °C 1033.1 hPa NW 9.5 km/h 18.5 km/h 65 % 0 mm
04:36 -13.9 °C -19.3 °C 1033.1 hPa WNW 4.5 km/h 9.3 km/h 64 % 0 mm
04:42 -14 °C -19.2 °C 1033.1 hPa NW 10.5 km/h 14.8 km/h 65 % 0 mm
04:45 -14 °C -19.2 °C 1033.1 hPa West 3.5 km/h 9.3 km/h 65 % 0 mm
04:51 -14.1 °C -19.2 °C 1033.1 hPa WNW 11.3 km/h 19.3 km/h 65 % 0 mm
04:54 -14.1 °C -19.1 °C 1033.1 hPa North 10.3 km/h 18.5 km/h 66 % 0 mm
04:59 -14.1 °C -19.1 °C 1033.1 hPa WNW 6.4 km/h 18.5 km/h 66 % 0 mm
05:02 -14.1 °C -19.1 °C 1033.1 hPa WNW 8.7 km/h 14.5 km/h 66 % 0 mm
05:07 -14.1 °C -19.1 °C 1033.4 hPa NNW 4.8 km/h 20.4 km/h 66 % 0 mm
05:11 -14 °C -18.8 °C 1033.4 hPa NW 4 km/h 11.1 km/h 67 % 0 mm
05:17 -14.1 °C -18.8 °C 1033.4 hPa NW 10.3 km/h 20.4 km/h 67 % 0 mm
05:22 -14.1 °C -19.2 °C 1033.4 hPa WNW 13.2 km/h 22.2 km/h 65 % 0 mm
05:28 -14.1 °C -19.1 °C 1033.1 hPa NW 7.2 km/h 16.7 km/h 66 % 0 mm
05:38 -14.1 °C -18.9 °C 1033.7 hPa WNW 6 km/h 16.7 km/h 67 % 0 mm
05:41 -14.1 °C -18.9 °C 1033.7 hPa NW 4.8 km/h 19.3 km/h 67 % 0 mm
05:46 -14.2 °C -18.9 °C 1033.7 hPa NW 8.7 km/h 13 km/h 67 % 0 mm
05:50 -14.2 °C -18.9 °C 1034.1 hPa WNW 5.6 km/h 9.3 km/h 67 % 0 mm
05:55 -14.2 °C -18.9 °C 1034.1 hPa NW 3.7 km/h 5.6 km/h 67 % 0 mm
06:00 -14.2 °C -19 °C 1033.7 hPa NW 10.5 km/h 18.5 km/h 67 % 0 mm
06:05 -14.3 °C -19.2 °C 1033.7 hPa WNW 3.4 km/h 9.3 km/h 66 % 0 mm
06:10 -14.3 °C -19.1 °C 1033.7 hPa NNW 8.9 km/h 11.3 km/h 67 % 0 mm
06:12 -14.3 °C -19.1 °C 1033.7 hPa NW 6.4 km/h 13 km/h 67 % 0 mm
06:17 -14.4 °C -19.2 °C 1033.7 hPa WNW 9.3 km/h 16.7 km/h 67 % 0 mm
06:20 -14.4 °C -19.2 °C 1033.7 hPa NW 4.7 km/h 9.3 km/h 67 % 0 mm
06:23 -14.4 °C -19 °C 1034.1 hPa NNW 5.8 km/h 11.3 km/h 68 % 0 mm
06:28 -14.4 °C -19 °C 1034.1 hPa North 6.6 km/h 11.3 km/h 68 % 0 mm
06:33 -14.4 °C -19 °C 1034.4 hPa NNW 9.2 km/h 18.5 km/h 68 % 0 mm
06:38 -14.3 °C -19.1 °C 1034.4 hPa NW 8.7 km/h 18.5 km/h 67 % 0 mm
06:42 -14.3 °C -19.1 °C 1034.4 hPa North 6.1 km/h 12.9 km/h 67 % 0 mm
06:47 -14.3 °C -19.1 °C 1034.8 hPa WNW 8.4 km/h 18.5 km/h 67 % 0 mm
06:52 -14.2 °C -19 °C 1034.8 hPa NW 11.3 km/h 11.3 km/h 67 % 0 mm
06:54 -14.2 °C -19 °C 1034.8 hPa WNW 6.9 km/h 11.1 km/h 67 % 0 mm
06:55 -14.2 °C -19 °C 1034.8 hPa NW 6.9 km/h 11.1 km/h 67 % 0 mm
07:00 -14.2 °C -19 °C 1034.8 hPa NW 4.3 km/h 7.4 km/h 67 % 0 mm
07:05 -14.2 °C -19.2 °C 1034.8 hPa NW 3.4 km/h 7.4 km/h 66 % 0 mm
07:09 -14.3 °C -19.2 °C 1034.8 hPa WNW 3.1 km/h 5.6 km/h 66 % 0 mm
07:11 -14.3 °C -19.2 °C 1034.8 hPa WNW 1.9 km/h 5.6 km/h 66 % 0 mm
07:16 -14.3 °C -19.3 °C 1034.8 hPa WNW 2.1 km/h 6.4 km/h 66 % 0 mm
07:21 -14.4 °C -19.3 °C 1034.8 hPa West 3.9 km/h 13 km/h 66 % 0 mm
07:26 -14.4 °C -19.4 °C 1034.8 hPa NW 5.1 km/h 11.3 km/h 66 % 0 mm
07:31 -14.4 °C -19.2 °C 1035.1 hPa NW 3.7 km/h 7.4 km/h 67 % 0 mm
07:36 -14.4 °C -19.2 °C 1035.1 hPa NW 4.5 km/h 5.6 km/h 67 % 0 mm
07:41 -14.4 °C -19.2 °C 1035.4 hPa NNW 0.8 km/h 3.7 km/h 67 % 0 mm
07:47 -14.3 °C -19.3 °C 1035.4 hPa West 2.7 km/h 7.4 km/h 66 % 0 mm
07:52 -14.3 °C -19.3 °C 1035.1 hPa North 3.7 km/h 6.4 km/h 66 % 0 mm
07:56 -14.3 °C -19.2 °C 1035.1 hPa WNW 1.4 km/h 7.4 km/h 66 % 0 mm
08:02 -14.2 °C -19.2 °C 1035.1 hPa NW 5.6 km/h 9.3 km/h 66 % 0 mm
08:07 -14.1 °C -19.1 °C 1035.1 hPa West 3.9 km/h 7.4 km/h 66 % 0 mm
08:12 -14.1 °C -19.1 °C 1035.1 hPa NW 6 km/h 13 km/h 66 % 0 mm
08:16 -14 °C -19 °C 1035.1 hPa NNW 6.8 km/h 9.3 km/h 66 % 0 mm
08:21 -13.9 °C -18.9 °C 1035.4 hPa WNW 5.5 km/h 9.3 km/h 66 % 0 mm
08:26 -13.8 °C -18.8 °C 1035.4 hPa WNW 2.6 km/h 9.7 km/h 66 % 0 mm
08:30 -13.8 °C -18.6 °C 1035.8 hPa NNW 7.1 km/h 7.4 km/h 67 % 0 mm
08:35 -13.7 °C -18.7 °C 1035.8 hPa NNW 6.3 km/h 13 km/h 66 % 0 mm
08:40 -13.6 °C -18.6 °C 1035.8 hPa NNW 5.5 km/h 11.1 km/h 66 % 0 mm
08:45 -13.5 °C -18.7 °C 1036.1 hPa NNW 4.2 km/h 7.4 km/h 65 % 0 mm
08:50 -13.4 °C -18.6 °C 1036.1 hPa NW 6.9 km/h 8 km/h 65 % 0 mm
08:55 -13.4 °C -18.6 °C 1036.1 hPa NW 5.5 km/h 13 km/h 65 % 0 mm
09:00 -13.3 °C -18.5 °C 1036.1 hPa NNW 6.3 km/h 13 km/h 65 % 0 mm
09:05 -13.2 °C -18.2 °C 1036.1 hPa NNW 2.7 km/h 9.3 km/h 66 % 0 mm
09:11 -13.2 °C -18.2 °C 1036.1 hPa NW 2.7 km/h 11.1 km/h 66 % 0 mm
09:16 -13.1 °C -18.3 °C 1036.1 hPa West 6.3 km/h 18.5 km/h 65 % 0 mm
09:21 -12.9 °C -18.2 °C 1036.5 hPa NW 6.6 km/h 9.3 km/h 65 % 0 mm
09:26 -12.8 °C -18.1 °C 1036.5 hPa WNW 7.4 km/h 11.1 km/h 65 % 0 mm
09:31 -12.7 °C -18.1 °C 1036.5 hPa NNW 6.9 km/h 11.3 km/h 64 % 0 mm
09:34 -12.6 °C -17.9 °C 1036.5 hPa WNW 5.8 km/h 9.7 km/h 64 % 0 mm
09:39 -12.3 °C -17.9 °C 1036.5 hPa WSW 7.4 km/h 11.3 km/h 63 % 0 mm
09:42 -12.3 °C -17.9 °C 1036.5 hPa NW 4 km/h 11.3 km/h 63 % 0 mm
09:47 -12.1 °C -17.9 °C 1036.5 hPa WNW 1.9 km/h 9.3 km/h 62 % 0 mm
09:52 -12 °C -17.8 °C 1036.8 hPa West 7.6 km/h 11.3 km/h 62 % 0 mm
09:57 -11.8 °C -17.7 °C 1036.8 hPa WNW 9.8 km/h 13 km/h 62 % 0 mm
10:02 -11.7 °C -17.7 °C 1036.5 hPa NW 2.6 km/h 5.6 km/h 61 % 0 mm
10:08 -11.6 °C -17.8 °C 1036.5 hPa NNW 5.5 km/h 11.1 km/h 60 % 0 mm
10:13 -11.5 °C -17.3 °C 1036.1 hPa NW 3.2 km/h 5.6 km/h 62 % 0 mm
10:18 -11.3 °C -17.2 °C 1036.5 hPa WSW 4.8 km/h 9.3 km/h 62 % 0 mm
10:24 -11.2 °C -17.3 °C 1036.5 hPa WNW 6 km/h 13 km/h 61 % 0 mm
10:27 -11.1 °C -17.3 °C 1036.5 hPa West 4.5 km/h 16.7 km/h 60 % 0 mm
10:32 -11 °C -17.7 °C 1036.1 hPa West 4.3 km/h 11.3 km/h 58 % 0 mm
10:37 -10.9 °C -17.3 °C 1036.5 hPa West 7.4 km/h 13 km/h 59 % 0 mm
10:39 -10.9 °C -17.3 °C 1036.5 hPa West 6.6 km/h 9.7 km/h 59 % 0 mm
10:44 -10.8 °C -17.3 °C 1036.1 hPa WSW 2.3 km/h 6.4 km/h 59 % 0 mm
10:50 -10.8 °C -17.2 °C 1036.1 hPa WNW 5.8 km/h 9.7 km/h 59 % 0 mm
10:55 -10.7 °C -17.2 °C 1035.8 hPa NW 5.8 km/h 11.3 km/h 59 % 0 mm
11:00 -10.7 °C -17.6 °C 1035.8 hPa WNW 3.2 km/h 11.3 km/h 57 % 0 mm
11:05 -10.7 °C -17.6 °C 1035.8 hPa NNW 9.7 km/h 18.5 km/h 57 % 0 mm
11:06 -10.7 °C -17.6 °C 1035.8 hPa NW 5.6 km/h 18.5 km/h 57 % 0 mm
11:09 -10.7 °C -17.4 °C 1035.4 hPa NW 1.6 km/h 11.1 km/h 58 % 0 mm
11:14 -10.8 °C -17.4 °C 1035.1 hPa WNW 3.4 km/h 8 km/h 58 % 0 mm
11:19 -10.8 °C -17.5 °C 1035.1 hPa WNW 5.8 km/h 14.8 km/h 58 % 0 mm
11:24 -10.9 °C -17.6 °C 1035.1 hPa West 5.8 km/h 13 km/h 58 % 0 mm
11:29 -10.9 °C -17.6 °C 1035.1 hPa West 2.6 km/h 7.4 km/h 58 % 0 mm
11:34 -11 °C -17.4 °C 1034.8 hPa WSW 5.8 km/h 9.3 km/h 59 % 0 mm
11:40 -11 °C -17.7 °C 1034.8 hPa West 4 km/h 5.6 km/h 58 % 0 mm
11:45 -10.9 °C -17.8 °C 1034.8 hPa NW 4.5 km/h 14.8 km/h 57 % 0 mm
11:50 -10.9 °C -17.6 °C 1034.8 hPa WNW 4.7 km/h 9.7 km/h 58 % 0 mm
11:56 -10.9 °C -17.3 °C 1034.4 hPa WNW 8.2 km/h 18.5 km/h 59 % 0 mm
12:01 -10.9 °C -17.3 °C 1034.8 hPa NW 3.5 km/h 9.3 km/h 59 % 0 mm
12:06 -10.8 °C -17.3 °C 1034.8 hPa WNW 1.9 km/h 3.7 km/h 59 % 0 mm
12:11 -10.8 °C -17.2 °C 1034.8 hPa WNW 8.7 km/h 13 km/h 59 % 0 mm
12:15 -10.8 °C -17.2 °C 1034.4 hPa West 7.6 km/h 11.3 km/h 59 % 0 mm
12:20 -10.7 °C -17.1 °C 1034.1 hPa NW 3.2 km/h 13 km/h 59 % 0 mm
12:25 -10.5 °C -17 °C 1034.1 hPa NNW 2.1 km/h 8 km/h 59 % 0 mm
12:30 -10.3 °C -17.2 °C 1034.1 hPa WSW 5.3 km/h 9.3 km/h 57 % 0 mm
12:35 -10.2 °C -17.1 °C 1034.1 hPa West 8 km/h 11.1 km/h 57 % 0 mm
12:40 -10 °C -16.9 °C 1034.1 hPa NW 9.2 km/h 13 km/h 57 % 0 mm
12:45 -9.9 °C -17.1 °C 1034.4 hPa WNW 5.8 km/h 9.7 km/h 56 % 0 mm
12:48 -9.9 °C -17.1 °C 1034.1 hPa WSW 5.8 km/h 11.1 km/h 56 % 0 mm
12:54 -9.7 °C -16.7 °C 1034.1 hPa WSW 1.9 km/h 14.8 km/h 57 % 0 mm
12:59 -9.5 °C -16.4 °C 1034.4 hPa West 4.3 km/h 13 km/h 57 % 0 mm
13:04 -9.4 °C -16.3 °C 1034.1 hPa SW 9.8 km/h 14.8 km/h 57 % 0 mm
13:09 -9.2 °C -16.2 °C 1034.1 hPa SW 9 km/h 13 km/h 57 % 0 mm
13:14 -9.1 °C -16.3 °C 1034.1 hPa SSW 6.8 km/h 9.7 km/h 56 % 0 mm
13:19 -9.1 °C -16.4 °C 1034.1 hPa West 5.6 km/h 13 km/h 55 % 0 mm
13:25 -8.9 °C -16.3 °C 1034.1 hPa SSW 7.9 km/h 14.8 km/h 55 % 0 mm
13:30 -8.8 °C -16.3 °C 1033.7 hPa SW 8.4 km/h 13 km/h 55 % 0 mm
13:31 -8.8 °C -16.2 °C 1033.7 hPa SSW 9 km/h 11.1 km/h 55 % 0 mm
13:36 -8.7 °C -16.1 °C 1033.7 hPa West 3.1 km/h 12.9 km/h 55 % 0 mm
13:41 -8.6 °C -16.3 °C 1033.7 hPa WSW 10.5 km/h 11.1 km/h 54 % 0 mm
13:47 -8.5 °C -16.2 °C 1033.7 hPa WSW 6.1 km/h 16.7 km/h 54 % 0 mm
13:49 -8.4 °C -16.3 °C 1033.7 hPa SW 10.8 km/h 14.8 km/h 53 % 0 mm
13:55 -8.4 °C -16.5 °C 1033.4 hPa SW 6.6 km/h 11.1 km/h 52 % 0 mm
14:01 -8.2 °C -16.3 °C 1033.4 hPa SSW 6.3 km/h 9.7 km/h 52 % 0 mm
14:06 -8.1 °C -16.2 °C 1033.4 hPa SW 6.3 km/h 11.1 km/h 52 % 0 mm
14:11 -8.1 °C -16.7 °C 1033.4 hPa West 6.9 km/h 13 km/h 50 % 0 mm
14:12 -8.1 °C -16.7 °C 1033.1 hPa West 3.9 km/h 13 km/h 50 % 0 mm
14:17 -8.1 °C -16.7 °C 1033.1 hPa WSW 6.6 km/h 13 km/h 50 % 0 mm
14:22 -8.2 °C -16.6 °C 1033.4 hPa West 0.5 km/h 3.7 km/h 51 % 0 mm
14:26 -8.2 °C -16.6 °C 1033.1 hPa SW 2.3 km/h 5.6 km/h 51 % 0 mm
14:31 -8.3 °C -16.6 °C 1033.1 hPa West 3.9 km/h 5.6 km/h 51 % 0 mm
14:37 -8.4 °C -16.7 °C 1033.1 hPa WNW 3.9 km/h 5.6 km/h 51 % 0 mm
14:40 -8.5 °C -16.8 °C 1033.1 hPa West 4 km/h 6.4 km/h 51 % 0 mm
14:45 -8.6 °C -16.9 °C 1032.7 hPa WSW 4 km/h 8 km/h 51 % 0 mm
14:50 -8.7 °C -17.1 °C 1032.7 hPa WSW 3.5 km/h 5.6 km/h 51 % 0 mm
14:55 -8.8 °C -16.9 °C 1033.1 hPa West 2.9 km/h 8 km/h 52 % 0 mm
15:00 -8.8 °C -16.9 °C 1032.7 hPa West 3.7 km/h 7.4 km/h 52 % 0 mm
15:05 -8.8 °C -16.7 °C 1032.7 hPa WSW 0.6 km/h 3.7 km/h 53 % 0 mm
15:10 -8.8 °C -16.7 °C 1032.4 hPa WSW 0.8 km/h 6.4 km/h 53 % 0 mm
15:15 -8.8 °C -16.7 °C 1032.7 hPa WSW 0.2 km/h 5.6 km/h 53 % 0 mm
15:20 -8.8 °C -16.7 °C 1032.4 hPa WSW 3.7 km/h 5.6 km/h 53 % 0 mm
15:22 -8.8 °C -16.7 °C 1032.4 hPa WSW 2.6 km/h 5.6 km/h 53 % 0 mm
15:27 -8.8 °C -16.7 °C 1032.7 hPa WNW 4.8 km/h 7.4 km/h 53 % 0 mm
15:32 -8.8 °C -16.7 °C 1032.7 hPa West 3.5 km/h 6.4 km/h 53 % 0 mm
15:38 -8.8 °C -16.7 °C 1032.4 hPa WSW 2.1 km/h 3.7 km/h 53 % 0 mm
15:43 -8.8 °C -16.7 °C 1032.4 hPa West 1.1 km/h 5.6 km/h 53 % 0 mm
15:48 -8.8 °C -16.4 °C 1032.4 hPa West 5.6 km/h 11.1 km/h 54 % 0 mm
15:53 -8.7 °C -16.6 °C 1032.4 hPa West 4.2 km/h 8 km/h 53 % 0 mm
15:59 -8.8 °C -16.7 °C 1032.4 hPa Calm   1.9 km/h 53 % 0 mm
16:04 -8.8 °C -16.4 °C 1032.4 hPa WSW 1 km/h 5.6 km/h 54 % 0 mm
16:05 -8.8 °C -16.4 °C 1032.4 hPa WSW 0.3 km/h 5.6 km/h 54 % 0 mm
16:10 -8.8 °C -16.3 °C 1032.4 hPa Calm     55 % 0 mm
16:16 -8.8 °C -16.3 °C 1032.4 hPa WSW 1.6 km/h 3.2 km/h 55 % 0 mm
16:21 -8.8 °C -16.1 °C 1032.1 hPa Calm     56 % 0 mm
16:23 -8.9 °C -16.1 °C 1032.4 hPa Calm     56 % 0 mm
16:33 -9 °C -16.2 °C 1032.4 hPa Calm   1.9 km/h 56 % 0 mm
16:39 -9.1 °C -16.1 °C 1032.1 hPa Calm     57 % 0 mm
16:44 -9.1 °C -16.1 °C 1032.1 hPa Calm     57 % 0 mm
16:49 -9.2 °C -16.1 °C 1032.4 hPa Calm     57 % 0 mm
16:54 -9.2 °C -16 °C 1032.1 hPa Calm     58 % 0 mm
16:59 -9.3 °C -15.9 °C 1032.1 hPa WSW 0.3 km/h 3.2 km/h 59 % 0 mm
17:05 -9.4 °C -15.8 °C 1032.1 hPa WSW 3.1 km/h 5.6 km/h 60 % 0 mm
17:09 -9.4 °C -15.8 °C 1032.1 hPa SW 3.9 km/h 5.6 km/h 60 % 0 mm
17:14 -9.5 °C -15.6 °C 1032.1 hPa SSW 1.9 km/h 9.3 km/h 61 % 0 mm
17:19 -9.4 °C -15.6 °C 1031.7 hPa SSW 3.4 km/h 13 km/h 61 % 0 mm
17:25 -9.4 °C -15.4 °C 1032.1 hPa SW 2.1 km/h 5.6 km/h 62 % 0 mm
17:30 -9.4 °C -15.3 °C 1032.1 hPa SSW 5.6 km/h 8 km/h 62 % 0 mm
17:35 -9.3 °C -15.3 °C 1032.1 hPa SSW 1.9 km/h 4.8 km/h 62 % 0 mm
17:40 -9.3 °C -15.3 °C 1031.7 hPa SW 1.1 km/h 3.7 km/h 62 % 0 mm
17:45 -9.3 °C -15.2 °C 1031.7 hPa SW 2.1 km/h 5.6 km/h 62 % 0 mm
17:47 -9.3 °C -15.2 °C 1031.7 hPa SW 4.2 km/h 9.3 km/h 62 % 0 mm
17:52 -9.3 °C -15.2 °C 1031.4 hPa SW 2.9 km/h 5.6 km/h 62 % 0 mm
17:57 -9.3 °C -15.2 °C 1031.7 hPa South 3.2 km/h 9.3 km/h 62 % 0 mm
18:02 -9.3 °C -15.2 °C 1031.4 hPa SSW 4.3 km/h 9.3 km/h 62 % 0 mm
18:08 -9.3 °C -15.2 °C 1031.4 hPa SSW 3.4 km/h 5.6 km/h 62 % 0 mm
18:13 -9.3 °C -15.3 °C 1031.4 hPa WSW 0.5 km/h 5.6 km/h 62 % 0 mm
18:18 -9.3 °C -15.3 °C 1031.4 hPa SW 2.6 km/h 5.6 km/h 62 % 0 mm
18:23 -9.3 °C -15.1 °C 1031.4 hPa SSW 4.7 km/h 12.9 km/h 63 % 0 mm
18:28 -9.3 °C -15.1 °C 1031.4 hPa SW 6.9 km/h 9.3 km/h 63 % 0 mm
18:34 -9.3 °C -15.1 °C 1031.4 hPa WSW 8.2 km/h 13 km/h 63 % 0 mm
18:39 -9.3 °C -15.1 °C 1031.4 hPa SW 2.7 km/h 9.3 km/h 63 % 0 mm
18:44 -9.3 °C -15.1 °C 1031 hPa SSW 4.5 km/h 7.4 km/h 63 % 0 mm
18:49 -9.3 °C -15.1 °C 1031 hPa SW 1.8 km/h 3.7 km/h 63 % 0 mm
18:54 -9.3 °C -15.1 °C 1030.7 hPa SW 7.2 km/h 7.4 km/h 63 % 0 mm
19:00 -9.3 °C -15.1 °C 1030.7 hPa SW 7.1 km/h 11.3 km/h 63 % 0 mm
19:05 -9.3 °C -15.1 °C 1030.7 hPa SW 6.3 km/h 9.3 km/h 63 % 0 mm
19:10 -9.3 °C -15.1 °C 1031 hPa SW 2.4 km/h 7.4 km/h 63 % 0 mm
19:12 -9.3 °C -15.1 °C 1031 hPa SSW 3.4 km/h 6.4 km/h 63 % 0 mm
19:17 -9.2 °C -15 °C 1031 hPa SSW 8.4 km/h 11.3 km/h 63 % 0 mm
19:23 -9.2 °C -14.9 °C 1030.7 hPa SSW 7.1 km/h 16.7 km/h 63 % 0 mm
19:28 -9.1 °C -14.8 °C 1030.7 hPa SSW 6.6 km/h 9.3 km/h 63 % 0 mm
19:33 -9 °C -14.8 °C 1030.7 hPa SW 10.6 km/h 14.5 km/h 63 % 0 mm
19:38 -8.9 °C -14.9 °C 1030.7 hPa SW 4.3 km/h 11.1 km/h 62 % 0 mm
19:43 -8.9 °C -14.8 °C 1030.4 hPa SW 6.9 km/h 7.4 km/h 62 % 0 mm
19:48 -8.8 °C -14.8 °C 1030.4 hPa SW 5.1 km/h 11.1 km/h 62 % 0 mm
19:53 -8.8 °C -14.7 °C 1030.4 hPa SW 8.7 km/h 11.3 km/h 62 % 0 mm
19:58 -8.8 °C -14.7 °C 1030.4 hPa SW 5.6 km/h 16.7 km/h 62 % 0 mm
20:03 -8.8 °C -14.9 °C 1030.4 hPa SW 3.2 km/h 14.5 km/h 61 % 0 mm
20:09 -8.7 °C -14.9 °C 1030.4 hPa WSW 6.4 km/h 11.1 km/h 61 % 0 mm
20:14 -8.7 °C -14.9 °C 1030.4 hPa SSW 6.4 km/h 11.3 km/h 61 % 0 mm
20:19 -8.7 °C -14.9 °C 1030.4 hPa SW 10.8 km/h 20.4 km/h 61 % 0 mm
20:23 -8.7 °C -14.9 °C 1030 hPa SW 8 km/h 12.9 km/h 61 % 0 mm
20:28 -8.7 °C -14.9 °C 1030 hPa SW 7.4 km/h 13 km/h 61 % 0 mm
20:33 -8.7 °C -14.9 °C 1030 hPa SW 5 km/h 11.3 km/h 61 % 0 mm
20:38 -8.8 °C -14.9 °C 1030 hPa WSW 6.1 km/h 11.1 km/h 61 % 0 mm
20:43 -8.8 °C -14.7 °C 1030 hPa SSW 3.7 km/h 16.7 km/h 62 % 0 mm
20:48 -8.8 °C -14.7 °C 1030 hPa West 6.6 km/h 9.3 km/h 62 % 0 mm
20:54 -8.8 °C -14.9 °C 1030 hPa WSW 6.1 km/h 11.1 km/h 61 % 0 mm
20:59 -8.8 °C -14.9 °C 1030 hPa SW 9.5 km/h 14.5 km/h 61 % 0 mm
21:01 -8.7 °C -14.9 °C 1030 hPa SW 4.2 km/h 14.8 km/h 61 % 0 mm
21:06 -8.7 °C -14.8 °C 1029.7 hPa SW 3.5 km/h 13 km/h 61 % 0 mm
21:11 -8.6 °C -14.8 °C 1029.3 hPa WSW 10.6 km/h 16.7 km/h 61 % 0 mm
21:16 -8.6 °C -14.7 °C 1029.3 hPa SW 7.4 km/h 14.8 km/h 61 % 0 mm
21:22 -8.5 °C -14.7 °C 1029.7 hPa WSW 8.9 km/h 14.8 km/h 61 % 0 mm
21:27 -8.5 °C -14.7 °C 1029.3 hPa SW 4.3 km/h 11.1 km/h 61 % 0 mm
21:32 -8.4 °C -14.6 °C 1029.3 hPa SW 6.6 km/h 14.8 km/h 61 % 0 mm
21:37 -8.4 °C -14.6 °C 1029.3 hPa SW 8.9 km/h 13 km/h 61 % 0 mm
21:43 -8.3 °C -14.5 °C 1029.3 hPa SW 1.4 km/h 13 km/h 61 % 0 mm
21:47 -8.3 °C -14.5 °C 1029.3 hPa WSW 8.2 km/h 18.5 km/h 61 % 0 mm
21:53 -8.3 °C -14.5 °C 1029 hPa SW 7.7 km/h 11.3 km/h 61 % 0 mm
21:59 -8.2 °C -14.4 °C 1029.3 hPa SSW 5.8 km/h 13 km/h 61 % 0 mm
22:04 -8.2 °C -14.4 °C 1029.3 hPa SW 2.9 km/h 11.1 km/h 61 % 0 mm
22:09 -8.1 °C -14.3 °C 1029.3 hPa SW 9.2 km/h 14.8 km/h 61 % 0 mm
22:16 -8.1 °C -14.3 °C 1029.3 hPa SSW 8.2 km/h 18.5 km/h 61 % 0 mm
22:21 -7.9 °C -13.9 °C 1029.3 hPa SW 10.3 km/h 20.9 km/h 62 % 0 mm
22:29 -7.8 °C -13.8 °C 1029.3 hPa SW 11.3 km/h 18.5 km/h 62 % 0 mm
22:41 -7.7 °C -13.7 °C 1029 hPa SW 11.4 km/h 22.5 km/h 62 % 0 mm
23:02 -7.7 °C -13.9 °C 1029 hPa SW 11.4 km/h 27.8 km/h 61 % 0 mm
23:32 -8 °C -14.2 °C 1028.3 hPa SSW 10.8 km/h 24.1 km/h 61 % 0 mm
23:48 -8 °C -14 °C 1028.3 hPa SW 6.8 km/h 24.1 km/h 62 % 0 mm
23:54 -8 °C -13.8 °C 1028 hPa SSW 9.8 km/h 20.4 km/h 63 % 0 mm
Crab Meadow Weather
Compliments of Weather Underground - 3 mb

Script developed by  Jim McMurry - jmcmurry@mwt.net Adapted for the template by  Wim van der Kuil - Leuven-Template.eu

Weather Terms: Lake Effect Snow Warning - Lake effect snowfall of 6 inches or more in 12 hours or less, or 8 inches or more in 24 hours or less.